FW1140 Weather Reports


Display with metric or nautical units.
time (UTC)temp
F
wind
direction
speed
MPH
gust
MPH
rain 1hr
in
rain 24hr
in
rain mn
in
humidity
%
barometer
mb
20260510141520 50 1 9.0 18.0 0.00 0.00 0.00 53 1019.2
20260510140016 49 355 11.0 17.0 0.00 0.00 0.00 54 1019.0
20260510134512 48 359 11.0 15.0 0.00 0.00 0.00 55 1018.9
20260510133007 47 360 10.0 13.0 0.00 0.00 0.00 59 1018.9
20260510131503 46 321 11.0 14.0 0.00 0.00 0.00 61 1018.8
20260510130059 45 314 11.0 15.0 0.00 0.00 0.00 62 1018.6
20260510124609 45 307 9.0 14.0 0.00 0.00 0.00 63 1018.4
20260510123050 44 305 11.0 15.0 0.00 0.00 0.00 63 1018.1
20260510121546 44 320 9.0 13.0 0.00 0.00 0.00 64 1017.9
20260510120041 43 297 8.0 12.0 0.00 0.00 0.00 64 1017.7
20260510114537 43 324 9.0 16.0 0.00 0.00 0.00 63 1017.5
20260510113032 41 231 8.0 13.0 0.00 0.00 0.00 65 1016.7
20260510111530 40 225 9.0 13.0 0.00 0.00 0.00 66 1016.4
20260510110036 41 229 10.0 14.0 0.00 0.00 0.00 63 1016.4
20260510104526 41 224 11.0 15.0 0.00 0.00 0.00 64 1016.1
20260510103024 41 226 10.0 14.0 0.00 0.00 0.00 64 1016.0
20260510101522 41 216 12.0 15.0 0.00 0.00 0.00 65 1015.8
20260510100021 40 226 11.0 14.0 0.00 0.04 0.00 67 1015.7
20260510094538 39 224 7.0 11.0 0.00 0.04 0.00 66 1015.6
20260510093019 40 223 9.0 11.0 0.00 0.04 0.00 64 1015.6
20260510091522 40 224 10.0 13.0 0.00 0.04 0.00 64 1015.5
20260510090019 38 221 7.0 9.0 0.00 0.04 0.00 67 1015.5
20260510084516 39 299 1.0 3.0 0.00 0.04 0.00 65 1015.5
20260510083013 41 255 1.0 5.0 0.00 0.04 0.00 64 1015.5
20260510081515 40 330 2.0 10.0 0.00 0.04 0.00 67 1015.4
20260510080014 39 231 8.0 11.0 0.00 0.04 0.00 71 1015.2
20260510074506 39 231 8.0 11.0 0.00 0.04 0.00 74 1015.1
20260510073007 38 227 6.0 8.0 0.00 0.04 0.00 77 1015.0
20260510071502 37 229 6.0 9.0 0.00 0.04 0.00 77 1014.9
20260510070002 38 238 6.0 7.0 0.00 0.04 0.00 73 1015.0
20260510064601 38 237 5.0 9.0 0.00 0.04 0.00 73 1015.0
20260510063059 38 236 6.0 9.0 0.00 0.04 0.00 73 1015.0
20260510061556 37 232 7.0 9.0 0.00 0.04 0.00 69 1015.1
20260510060055 37 231 7.0 9.0 0.00 0.04 0.00 67 1015.0
20260510054551 37 231 5.0 7.0 0.00 0.04 0.00 67 1014.8
20260510053059 37 233 6.0 8.0 0.00 0.04 0.00 66 1014.8
20260510051549 38 231 7.0 8.0 0.00 0.04 0.00 64 1014.9
20260510050043 39 236 5.0 6.0 0.00 0.04 0.00 61 1014.7
20260510044539 40 236 5.0 8.0 0.00 0.04 0.04 59 1014.7
20260510043043 42 238 4.0 6.0 0.00 0.04 0.04 57 1014.6
20260510041534 43 251 4.0 5.0 0.00 0.04 0.04 54 1014.6
20260510040039 45 254 3.0 6.0 0.00 0.04 0.04 50 1014.5
20260510034530 46 271 3.0 6.0 0.00 0.04 0.04 50 1014.4
20260510033029 46 264 4.0 6.0 0.00 0.04 0.04 49 1014.3
20260510031529 46 262 3.0 5.0 0.00 0.04 0.04 49 1014.2
20260510030027 47 267 3.0 5.0 0.00 0.04 0.04 48 1014.0
20260510024525 48 271 4.0 5.0 0.00 0.04 0.04 47 1013.8
20260510023023 48 262 3.0 5.0 0.00 0.04 0.04 47 1013.6
20260510021535 49 275 2.0 5.0 0.00 0.04 0.04 45 1013.4
20260510020020 51 285 5.0 7.0 0.00 0.04 0.04 42 1013.2
20260510014522 51 321 5.0 8.0 0.00 0.04 0.04 41 1013.0
20260510013023 53 298 6.0 9.0 0.00 0.04 0.04 40 1012.8
20260510011515 54 292 6.0 11.0 0.00 0.04 0.04 38 1012.5
20260510010013 55 335 9.0 14.0 0.00 0.04 0.04 34 1012.3
20260510004514 56 302 9.0 17.0 0.00 0.04 0.04 35 1012.1
20260510003011 57 321 11.0 18.0 0.00 0.04 0.04 33 1012.0
20260510001510 57 352 10.0 19.0 0.00 0.04 0.04 33 1011.9
20260510000009 57 335 15.0 20.0 0.00 0.04 0.04 32 1011.7
20260509234507 58 314 10.0 20.0 0.00 0.04 0.04 33 1011.6
20260509233006 58 351 12.0 18.0 0.00 0.04 0.04 32 1011.4
20260509231505 58 333 13.0 22.0 0.00 0.04 0.04 32 1011.4
20260509230007 58 324 14.0 22.0 0.00 0.04 0.04 32 1011.2
20260509224506 58 280 13.0 24.0 0.00 0.04 0.04 33 1011.1
20260509223002 59 326 19.0 23.0 0.00 0.04 0.04 32 1010.9
20260509221503 59 333 16.0 20.0 0.00 0.04 0.04 32 1010.9
20260509214632 59 295 17.0 28.0 0.00 0.04 0.04 33 1010.9
20260509213102 59 325 16.0 22.0 0.00 0.04 0.04 34 1010.8
20260509211559 59 348 15.0 23.0 0.00 0.04 0.04 33 1010.8
20260509210107 59 308 14.0 28.0 0.00 0.04 0.04 34 1010.8
20260509204556 58 359 19.0 28.0 0.00 0.04 0.04 35 1010.7
20260509203105 58 359 15.0 23.0 0.00 0.04 0.04 35 1010.8
20260509201556 58 297 16.0 32.0 0.00 0.04 0.04 35 1010.8
20260509200055 58 330 14.0 23.0 0.00 0.04 0.04 35 1010.8
20260509194551 58 350 14.0 22.0 0.00 0.04 0.04 37 1010.6
20260509193055 57 338 16.0 29.0 0.00 0.04 0.04 39 1010.6
20260509191558 57 335 17.0 25.0 0.00 0.04 0.04 37 1010.6
20260509190052 57 347 18.0 26.0 0.00 0.04 0.04 38 1010.3
20260509184555 57 340 14.0 29.0 0.00 0.04 0.04 40 1010.2
20260509183050 56 351 17.0 28.0 0.00 0.04 0.04 39 1010.0
20260509181541 56 356 20.0 28.0 0.00 0.04 0.04 39 1009.9
20260509180041 56 342 18.0 25.0 0.00 0.04 0.04 39 1009.8
20260509174553 56 1 16.0 24.0 0.00 0.04 0.04 38 1009.6
20260509173039 56 338 20.0 25.0 0.00 0.04 0.04 41 1009.5
20260509171533 54 360 16.0 25.0 0.00 0.04 0.04 43 1009.4
20260509170030 54 341 15.0 25.0 0.00 0.04 0.04 44 1009.3
20260509164528 54 351 13.0 22.0 0.00 0.04 0.04 45 1009.2
20260509163033 54 341 15.0 23.0 0.00 0.04 0.04 47 1008.9
20260509161519 53 342 15.0 23.0 0.00 0.04 0.04 48 1008.7
20260509160016 53 344 17.0 22.0 0.00 0.04 0.04 50 1008.6
20260509154512 53 345 11.0 22.0 0.00 0.04 0.04 54 1008.3
20260509153009 52 336 15.0 22.0 0.00 0.04 0.04 53 1008.0
20260509151503 51 352 14.0 19.0 0.00 0.04 0.04 59 1008.0
20260509150101 51 349 14.0 21.0 0.00 0.04 0.04 64 1007.7
20260509144555 50 359 14.0 21.0 0.00 0.04 0.04 68 1007.5
20260509143050 50 360 12.0 20.0 0.00 0.04 0.04 74 1007.4